Weather History for KSDF - May, 2014

Change the Weather History Date:

Thursday, May 29, 2014

  Actual Average Record
Temperature  
Mean Temperature 78 °F 71 °F  
Max Temperature 86 °F 81 °F 95 °F (1911)
Min Temperature 69 °F 61 °F 43 °F (1965)
Degree Days  
Heating Degree Days 0 1  
Month to date heating degree days 69 66  
Since 1 July heating degree days 4547 4091  
Cooling Degree Days 13 7  
Month to date cooling degree days 178 116  
Year to date cooling degree days 209 159  
Growing Degree Days 28 (Base 50)    
Moisture  
Dew Point 67 °F    
Average Humidity 74    
Maximum Humidity 97    
Minimum Humidity 51    
Precipitation  
Precipitation 0.05 in 0.16 in 3.54 in (1880)
Month to date precipitation 3.90 4.95  
Year to date precipitation 19.37 19.55  
Snow  
Snow 0.00 in 0.00 in - ()
Month to date snowfall 0.0 0.0  
Since 1 July snowfall 26.0 12.5  
Snow Depth 0.00 in    
Sea Level Pressure  
Sea Level Pressure 30.01 in    
Wind  
Wind Speed 4 mph (ESE)    
Max Wind Speed 13 mph    
Max Gust Speed 15 mph    
Visibility 9 miles    
Events Rain , Thunderstorm    
T = Trace of Precipitation, MM = Missing Value Source: NWS Daily Summary

Daily Weather History Graph

Daily Weather History Graph

Search for Another Location

Airport or City:

Trip Planner

Search our weather history database for the weather conditions in past years. The results will help you decide how hot, cold, wet, or windy it might be!

Date:

Astronomy

May. 29, 2014 Rise Set
Actual Time 6:22 AM EDT 8:58 PM EDT
Civil Twilight 5:52 AM EDT 9:29 PM EDT
Nautical Twilight 5:13 AM EDT 10:07 PM EDT
Astronomical Twilight 4:31 AM EDT 10:50 PM EDT
Moon 7:14 AM EDT (5/29) 9:48 PM EDT (5/29)
Length of Visible Light 15h 36m
Length of Day
14h 35m
New Moon, 1% of the Moon is Illuminated
May 29
New Moon
Jun 5
First Quarter
Jun 13
Full
Jun 19
Last Quarter
Jun 27
New

Hourly Weather History & Observations

Time (EDT) Temp. Heat Index Dew Point Humidity Pressure Visibility Wind Dir Wind Speed Gust Speed Precip Events Conditions
12:56 AM 70.0 °F - 66.9 °F 90% 30.00 in 10.0 mi ESE 4.6 mph - N/A   Mostly Cloudy
1:56 AM 71.1 °F - 66.9 °F 87% 29.98 in 10.0 mi Calm Calm - 0.00 in Rain Light Rain
2:56 AM 70.0 °F - 66.9 °F 90% 29.97 in 10.0 mi Calm Calm - 0.00 in   Mostly Cloudy
3:56 AM 70.0 °F - 66.9 °F 90% 29.96 in 9.0 mi Calm Calm - N/A   Scattered Clouds
4:56 AM 69.8 °F - 68.0 °F 94% 29.99 in 8.0 mi ENE 4.6 mph - N/A   Mostly Cloudy
5:56 AM 70.0 °F - 66.9 °F 90% 29.99 in 8.0 mi SSE 5.8 mph - N/A   Mostly Cloudy
6:56 AM 69.1 °F - 66.0 °F 90% 30.01 in 9.0 mi SE 4.6 mph - N/A   Overcast
7:56 AM 69.8 °F - 66.2 °F 88% 30.03 in 9.0 mi SSE 4.6 mph - N/A   Overcast
8:56 AM 70.0 °F - 66.9 °F 90% 30.04 in 10.0 mi SE 5.8 mph - N/A   Overcast
9:56 AM 71.1 °F - 66.9 °F 87% 30.05 in 9.0 mi SE 5.8 mph - N/A   Overcast
10:56 AM 75.0 °F - 68.0 °F 79% 30.05 in 10.0 mi SSE 3.5 mph - 0.00 in   Overcast
11:56 AM 77.0 °F - 66.9 °F 71% 30.06 in 10.0 mi Calm Calm - N/A   Overcast
12:56 PM 79.0 °F - 66.0 °F 64% 30.06 in 10.0 mi East 4.6 mph - 0.00 in Rain Light Rain
1:56 PM 80.6 °F 82.7 °F 66.2 °F 61% 30.06 in 10.0 mi Calm Calm - N/A   Overcast
2:56 PM 84.0 °F 87.0 °F 68.0 °F 58% 30.02 in 10.0 mi West 4.6 mph - N/A   Mostly Cloudy
3:56 PM 84.0 °F 86.5 °F 66.9 °F 56% 29.99 in 10.0 mi SW 4.6 mph - N/A   Mostly Cloudy
4:56 PM 84.9 °F 87.6 °F 66.9 °F 55% 29.99 in 10.0 mi NW 5.8 mph - N/A   Mostly Cloudy
5:56 PM 84.0 °F 85.8 °F 64.9 °F 53% 29.98 in 10.0 mi WNW 5.8 mph - N/A   Mostly Cloudy
6:56 PM 84.9 °F 86.6 °F 64.9 °F 51% 29.97 in 10.0 mi Calm Calm - N/A   Mostly Cloudy
7:56 PM 82.9 °F 84.6 °F 64.9 °F 54% 29.98 in 10.0 mi SE 5.8 mph - N/A   Mostly Cloudy
8:56 PM 81.0 °F 83.3 °F 66.9 °F 62% 29.99 in 10.0 mi South 6.9 mph - N/A   Mostly Cloudy
9:11 PM 81.0 °F 83.8 °F 68.0 °F 65% 30.01 in 10.0 mi South 6.9 mph - N/A Thunderstorm Thunderstorm
9:56 PM 73.9 °F - 69.1 °F 85% 30.02 in 5.0 mi NNE 11.5 mph - 0.02 in Rain , Thunderstorm Thunderstorms and Rain
10:12 PM 73.0 °F - 69.1 °F 87% 30.05 in 6.0 mi NNE 11.5 mph - 0.02 in Rain , Thunderstorm Light Thunderstorms and Rain
10:20 PM 73.0 °F - 69.1 °F 87% 30.04 in 9.0 mi NNE 5.8 mph - 0.02 in Rain , Thunderstorm Light Thunderstorms and Rain
10:50 PM 73.4 °F - 69.8 °F 88% 30.04 in 10.0 mi NNW 5.8 mph - 0.03 in Rain Light Rain
10:56 PM 73.0 °F - 70.0 °F 90% 30.02 in 10.0 mi North 3.5 mph - 0.03 in Rain Light Rain
11:56 PM 73.9 °F - 71.1 °F 91% 30.02 in 9.0 mi Calm Calm - 0.00 in   Overcast